Location: Unspecified
(33.9360°N, 0.0000°E)
Time: 20:23:54
(UTC+00:00)

ISS - Visible Passes

Search period start: 20 May 2019 00:00
Search period end: 30 May 2019 00:00
Orbit: 408 x 410 km, 51.6° (Epoch: 21 May)

Date Brightness Start Highest point End Pass type
(mag) Time Alt. Az. Time Alt. Az. Time Alt. Az.
20 May -1.5 02:29:47 10° NNW 02:32:35 25° NE 02:35:23 10° E visible
20 May -2.7 04:06:20 10° WNW 04:09:06 25° SW 04:11:52 10° S visible
20 May -0.5 20:45:37 10° WNW 20:47:30 14° NNW 20:49:24 10° N visible
21 May0.301:46:07E01:46:07E01:37:08NNWvisible
21 May -3.0 03:19:20 35° S 03:19:20 35° S 03:21:32 10° SSE visible
21 May -1.1 19:53:42 10° W 19:56:25 23° NW 19:59:07 10° NNE visible
23 May -0.4 19:50:14 10° NW 19:51:26 11° NNW 19:52:36 10° N visible
